Wind_Speed
25 25 25 25 25 25 25 25 26 26 27 28 28 28 27 28 29 30 31 32 33 34 36 36 36 37 38 38 40 41 42 42 42 43 43 43 43 43 43 43 41 40 40 40
25 25 25 26 25 26 26 26 25 25 25 26 26 27 26 26 27 28 30 31 31 33 34 35 36 36 37 39 40 40 41 42 42 42 43 44 44 44 44 43 42 41 41 41
26 26 26 26 26 26 26 25 25 25 25 25 26 26 25 25 26 27 28 29 30 31 32 34 36 37 38 38 39 41 41 42 42 43 43 44 45 46 45 44 43 41 41 42
26 25 25 25 26 26 25 25 25 25 25 26 26 27 25 24 26 28 27 28 29 30 31 33 34 35 37 39 39 41 42 42 42 42 43 43 45 46 46 45 44 43 41 42
26 24 24 25 25 25 25 25 25 24 24 25 25 26 24 23 24 25 26 26 29 31 32 33 33 34 35 37 38 39 41 42 42 43 43 44 45 46 46 46 46 45 43 43
25 24 24 25 25 24 24 24 24 24 24 25 24 25 24 23 23 24 26 27 28 29 32 33 33 33 34 36 37 38 39 41 42 43 43 44 44 46 48 48 47 47 45 43
25 24 24 25 25 25 24 24 25 25 25 25 25 25 24 24 24 25 26 26 25 27 29 30 31 33 34 35 36 38 39 40 41 42 43 44 45 47 48 48 47 47 47 46
26 25 25 25 25 26 25 25 26 27 27 26 25 25 24 24 24 24 24 24 25 26 27 29 30 32 33 35 36 37 39 40 42 42 43 44 45 46 47 47 47 46 47 47
27 26 26 26 25 25 26 26 27 28 29 28 26 25 24 24 23 23 23 24 25 26 28 29 30 30 32 35 36 38 38 40 42 43 42 42 44 44 45 46 46 45 45 46
28 27 26 26 26 26 27 27 27 28 29 30 28 26 25 24 24 24 25 25 25 26 27 29 30 30 31 33 36 37 38 40 41 42 41 40 41 43 44 44 45 45 44 45
29 28 28 27 27 27 27 27 27 28 28 29 29 26 25 25 25 25 25 25 25 26 26 27 29 29 30 32 34 36 37 38 40 41 41 41 41 42 43 43 44 45 45 46
30 30 29 29 28 28 28 27 27 28 29 29 29 26 25 24 24 24 24 25 25 25 26 26 27 29 30 31 33 35 37 38 40 41 41 41 42 43 43 44 45 45 45 45
30 30 30 30 29 29 28 28 28 29 29 29 28 26 26 25 24 24 25 24 24 25 26 26 26 28 30 31 32 33 36 38 39 41 42 42 42 43 44 45 45 45 44 44
31 31 30 30 30 30 29 29 29 29 29 29 27 26 25 25 24 24 25 25 24 25 25 25 26 28 30 31 32 32 34 36 38 40 41 42 42 43 44 45 45 46 45 45
31 31 31 31 30 31 30 29 29 29 29 29 27 26 25 25 24 24 24 25 25 25 25 26 26 28 29 30 30 32 34 34 37 39 41 41 41 42 44 45 44 44 44 44
31 32 31 31 30 31 30 28 28 27 27 27 27 26 25 25 25 25 25 25 24 24 24 25 26 26 27 28 29 31 33 34 35 37 39 41 42 43 43 44 43 42 42 42
31 32 32 32 31 31 30 28 27 26 26 26 26 26 26 25 25 25 26 26 25 24 25 25 26 26 26 26 28 29 32 33 34 35 37 39 41 42 43 43 44 43 42 42
32 32 33 33 32 31 29 28 27 26 25 26 26 26 26 26 26 26 26 26 25 25 25 25 26 26 26 27 28 29 31 32 33 35 36 38 40 40 41 42 43 43 44 43
32 32 32 33 33 31 29 28 27 27 26 26 27 27 28 28 28 27 27 28 27 26 26 26 26 26 26 27 28 29 30 32 33 34 35 36 38 39 40 41 42 43 44 44
33 32 32 32 32 31 29 28 27 27 27 27 27 28 29 29 29 28 28 28 28 27 27 27 27 27 28 29 29 30 30 32 33 34 34 34 36 38 40 41 41 42 43 42
32 32 32 31 31 30 29 28 28 27 28 28 28 28 29 29 29 29 29 28 28 28 28 28 28 28 29 30 31 31 31 31 32 33 34 34 35 36 38 39 41 41 41 41
32 32 31 31 30 29 29 28 28 28 28 29 29 30 30 29 29 29 29 29 29 28 28 28 29 30 30 31 31 31 31 31 31 32 33 34 34 35 37 38 39 40 40 40
30 30 30 30 29 29 29 29 29 29 29 29 30 31 30 30 30 29 28 28 29 29 29 29 29 29 30 30 30 30 30 30 30 30 30 32 33 33 35 37 38 38 39 39
29 29 29 28 27 28 29 29 29 29 29 29 30 30 30 30 29 29 28 28 29 29 30 30 30 29 29 29 30 30 30 30 30 30 30 31 32 33 34 35 37 38 39 38
29 29 29 29 28 29 30 30 30 29 29 29 29 29 30 30 29 29 29 29 29 29 29 30 30 30 30 29 29 30 30 29 30 30 30 30 30 31 32 33 35 37 38 38
30 30 30 29 29 30 30 30 30 30 29 29 29 29 29 29 29 29 29 29 29 29 29 29 29 30 30 30 30 30 30 29 28 29 29 29 29 30 32 33 34 36 37 37
Wind_Direction
311 309 308 306 305 305 302 298 294 291 288 285 281 278 276 275 270 267 265 263 257 254 252 250 250 250 246 243 240 240 239 238 239 241 240 240 239 240 241 243 244 246 245 244
310 309 310 308 306 306 304 300 297 294 292 289 285 281 278 278 274 270 267 264 259 254 251 249 248 250 248 244 241 239 239 239 239 241 241 240 240 240 241 243 243 245 245 244
312 312 312 311 308 308 306 303 300 298 295 292 289 284 278 277 273 270 268 264 259 253 250 248 248 249 247 245 243 240 239 239 239 241 241 240 240 240 240 242 243 245 244 243
315 313 313 312 310 310 309 306 304 301 299 297 297 293 285 282 274 271 270 265 258 253 251 250 249 249 246 245 244 241 240 239 239 240 240 240 240 241 241 242 243 245 245 243
317 314 314 314 313 313 312 310 307 305 303 301 301 298 294 287 280 275 272 269 261 254 253 253 252 250 246 245 244 241 239 238 239 239 240 241 241 241 241 242 243 245 246 245
317 316 314 315 315 314 312 312 310 308 306 304 305 302 299 292 285 280 275 273 268 259 255 256 253 250 247 244 242 240 239 238 239 240 240 241 242 242 242 242 244 244 245 246
316 316 314 314 312 311 309 311 312 311 309 308 306 303 300 295 287 282 281 277 270 264 257 255 254 251 248 244 241 240 239 239 239 240 241 242 244 244 243 243 244 245 245 246
317 316 315 314 312 310 308 309 310 310 308 308 307 305 303 298 291 287 283 277 272 267 261 256 253 250 247 245 242 241 240 240 239 240 243 244 244 244 243 242 242 244 245 246
316 315 314 313 312 310 308 309 309 308 306 307 307 305 303 298 292 287 282 278 275 270 265 260 254 251 248 246 243 242 242 242 241 242 244 245 244 244 243 241 241 242 244 246
315 313 313 312 311 311 309 308 309 309 308 307 307 307 304 301 294 288 284 282 278 275 270 265 259 257 253 250 246 244 246 244 244 244 244 245 246 245 244 243 243 243 245 246
313 313 312 311 312 313 312 309 306 306 306 306 307 307 305 300 296 292 287 285 282 278 273 268 262 259 256 252 249 249 249 247 245 244 244 245 246 245 243 244 244 244 245 246
312 311 310 309 310 312 312 311 308 306 305 304 304 306 304 299 295 293 291 287 283 280 275 269 264 261 258 255 253 253 252 250 248 246 247 247 246 245 244 244 245 246 247 248
310 309 309 308 309 309 309 308 307 305 303 303 303 304 304 299 292 291 291 289 286 283 279 272 265 262 261 259 257 256 255 252 249 248 249 248 247 247 245 245 245 246 246 247
309 307 306 306 306 305 306 306 304 302 302 302 303 303 302 298 294 292 289 288 288 286 281 276 269 266 264 262 258 257 257 254 251 250 250 249 247 247 246 245 246 246 247 247
307 307 305 303 302 301 302 303 303 301 301 302 304 302 301 297 295 294 292 289 288 288 285 280 274 269 266 264 260 258 258 256 254 252 250 249 248 248 247 247 247 246 245 247
305 305 305 304 303 300 300 301 301 300 299 299 302 303 300 298 295 294 293 290 289 288 287 281 276 272 268 264 262 260 258 257 256 255 252 250 248 249 250 249 248 247 247 247
304 304 304 304 304 303 302 302 299 298 300 299 299 301 301 300 296 294 293 291 288 287 285 282 276 273 270 268 266 261 258 258 258 257 256 253 251 250 250 250 248 248 249 250
302 302 302 303 304 304 305 302 300 299 299 298 298 299 300 299 298 294 293 291 288 286 284 282 278 274 272 272 270 266 261 260 259 258 257 255 253 251 250 250 249 249 250 252
299 300 301 302 303 303 303 302 300 299 300 299 298 297 297 297 297 294 292 290 287 285 283 282 279 275 274 274 273 271 267 264 262 261 259 256 254 252 249 249 250 250 250 252
299 299 300 301 301 304 305 302 300 300 300 299 298 297 296 296 296 295 291 290 287 285 283 281 279 277 275 275 275 273 272 269 265 262 259 258 256 253 251 251 251 250 250 251
300 299 299 300 300 302 303 303 302 300 301 300 298 297 298 296 296 295 291 289 288 286 284 281 280 279 276 276 275 275 275 272 269 264 261 260 258 256 254 253 251 250 250 251
299 299 299 298 299 301 300 301 301 301 300 300 299 298 297 297 295 294 292 290 288 286 285 284 281 280 279 277 276 276 275 273 270 266 262 261 259 258 256 254 253 252 252 252
297 298 297 297 298 299 299 299 300 300 299 298 298 298 297 296 295 293 292 291 288 287 286 285 284 282 280 279 278 277 276 273 270 267 264 261 260 260 259 257 254 254 254 253
295 295 294 294 295 296 297 298 299 299 299 299 298 298 298 297 295 293 292 291 290 289 286 285 285 284 282 281 280 279 276 274 271 269 267 263 261 260 259 258 256 255 254 253
294 294 294 293 293 292 294 296 297 297 297 297 297 297 297 297 295 294 292 292 292 291 287 285 284 283 281 280 279 278 277 274 272 271 269 266 261 258 256 255 254 254 254 253
295 294 293 292 292 291 292 293 294 294 295 295 295 296 296 297 296 294 293 293 293 292 289 287 285 284 282 280 278 277 276 273 271 270 269 267 264 260 257 257 256 255 253 253
Height
5714 5711 5706 5703 5700 5696 5693 5690 5687 5685 5681 5678 5676 5674 5673 5671 5669 5667 5667 5666 5665 5666 5667 5669 5670 5672 5675 5678 5682 5686 5691 5695 5700 5704 5708 5712 5716 5720 5724 5727 5730 5733 5736 5739
5709 5705 5701 5697 5693 5690 5686 5683 5680 5678 5674 5671 5668 5666 5665 5662 5660 5658 5657 5656 5655 5656 5657 5659 5661 5663 5665 5668 5672 5676 5681 5685 5690 5694 5698 5702 5706 5710 5714 5717 5721 5724 5727 5730
5703 5700 5695 5691 5687 5683 5680 5676 5673 5670 5667 5664 5661 5659 5657 5655 5652 5650 5649 5648 5647 5647 5648 5650 5652 5653 5655 5658 5661 5666 5670 5675 5679 5684 5687 5691 5695 5699 5704 5707 5711 5714 5717 5720
5696 5693 5689 5685 5682 5678 5674 5670 5667 5663 5660 5657 5654 5650 5650 5647 5644 5643 5641 5639 5638 5638 5639 5640 5642 5643 5645 5648 5651 5655 5660 5664 5669 5673 5677 5681 5685 5689 5693 5697 5701 5704 5707 5710
5691 5687 5684 5680 5676 5672 5668 5665 5661 5658 5654 5651 5648 5643 5643 5640 5637 5635 5633 5631 5630 5630 5630 5631 5632 5634 5636 5639 5642 5645 5649 5654 5658 5662 5666 5670 5674 5678 5682 5686 5690 5694 5697 5699
5686 5682 5678 5674 5670 5666 5663 5659 5656 5652 5648 5645 5642 5637 5635 5632 5629 5627 5626 5624 5623 5622 5622 5622 5624 5625 5627 5630 5632 5636 5639 5643 5647 5651 5655 5659 5663 5666 5671 5675 5679 5683 5686 5689
5682 5677 5673 5669 5665 5661 5657 5654 5649 5645 5641 5638 5635 5630 5629 5626 5623 5621 5619 5617 5615 5615 5615 5615 5616 5617 5618 5620 5623 5626 5630 5633 5637 5640 5644 5647 5651 5654 5659 5663 5667 5671 5675 5678
5676 5672 5668 5663 5659 5655 5651 5648 5644 5638 5634 5632 5629 5625 5623 5620 5617 5614 5612 5609 5608 5607 5607 5607 5607 5608 5609 5611 5614 5617 5620 5623 5626 5630 5633 5636 5639 5642 5646 5651 5656 5660 5664 5667
5669 5667 5662 5658 5653 5650 5645 5642 5638 5634 5628 5625 5622 5619 5617 5614 5610 5607 5605 5603 5601 5600 5600 5600 5600 5600 5601 5603 5605 5607 5610 5613 5616 5620 5622 5625 5628 5630 5634 5639 5643 5648 5652 5655
5663 5660 5657 5653 5648 5644 5640 5636 5632 5627 5622 5617 5615 5612 5610 5606 5604 5601 5598 5596 5594 5593 5593 5592 5593 5593 5594 5595 5596 5598 5600 5603 5606 5609 5612 5614 5617 5619 5623 5627 5631 5636 5640 5644
5657 5654 5651 5647 5642 5638 5634 5630 5625 5621 5617 5612 5608 5609 5604 5600 5597 5594 5592 5590 5588 5586 5586 5585 5585 5585 5586 5587 5588 5589 5591 5593 5596 5598 5601 5603 5606 5609 5612 5615 5620 5624 5628 5632
5650 5647 5644 5641 5636 5632 5628 5624 5619 5616 5611 5606 5602 5604 5597 5594 5590 5588 5585 5583 5581 5579 5578 5578 5578 5578 5578 5579 5580 5581 5582 5584 5586 5588 5590 5593 5595 5598 5601 5605 5609 5613 5617 5620
5643 5639 5636 5633 5632 5627 5622 5617 5613 5609 5605 5601 5597 5598 5591 5588 5584 5582 5579 5576 5574 5573 5572 5571 5570 5570 5570 5571 5571 5572 5573 5575 5576 5578 5580 5582 5584 5587 5590 5594 5597 5601 5605 5608
5636 5633 5630 5626 5622 5617 5614 5611 5607 5602 5598 5594 5592 5589 5585 5581 5578 5576 5573 5570 5568 5566 5565 5564 5563 5563 5562 5563 5563 5564 5564 5565 5566 5568 5570 5572 5574 5576 5580 5583 5586 5590 5594 5597
5628 5625 5622 5619 5615 5611 5607 5604 5600 5596 5592 5588 5585 5582 5578 5574 5572 5569 5566 5564 5562 5560 5558 5557 5556 5555 5555 5554 5555 5555 5555 5556 5557 5558 5560 5562 5563 5566 5568 5572 5575 5579 5582 5585
5621 5617 5614 5611 5608 5603 5600 5597 5593 5589 5585 5582 5578 5576 5572 5568 5565 5563 5560 5557 5555 5553 5551 5550 5548 5547 5547 5546 5546 5547 5546 5547 5547 5548 5550 5552 5553 5556 5558 5561 5564 5567 5571 5574
5613 5609 5605 5602 5599 5594 5592 5590 5585 5582 5578 5575 5571 5569 5565 5562 5559 5556 5553 5550 5548 5546 5544 5543 5541 5540 5539 5538 5538 5537 5538 5538 5538 5539 5540 5541 5543 5545 5548 5550 5554 5557 5560 5563
5605 5601 5596 5593 5590 5586 5587 5581 5577 5574 5571 5568 5564 5561 5558 5555 5552 5549 5546 5543 5541 5539 5537 5535 5534 5533 5532 5530 5529 5529 5529 5529 5529 5529 5530 5531 5533 5535 5537 5540 5543 5546 5549 5552
5597 5592 5588 5584 5580 5578 5577 5573 5569 5566 5564 5560 5557 5554 5551 5548 5545 5543 5539 5536 5534 5532 5530 5528 5527 5526 5524 5523 5522 5521 5520 5520 5520 5520 5520 5521 5522 5524 5527 5530 5532 5535 5538 5541
5587 5584 5580 5576 5572 5569 5570 5565 5561 5559 5556 5553 5549 5546 5543 5540 5538 5536 5532 5528 5526 5524 5522 5521 5519 5518 5517 5515 5514 5513 5512 5511 5511 5510 5511 5511 5512 5514 5517 5519 5521 5523 5526 5529
5578 5574 5571 5567 5563 5561 5560 5556 5553 5552 5549 5545 5541 5538 5535 5532 5529 5527 5523 5520 5518 5516 5514 5513 5511 5510 5508 5507 5506 5505 5503 5502 5502 5501 5501 5502 5503 5504 5506 5508 5510 5512 5515 5518
5568 5565 5562 5559 5556 5556 5551 5548 5546 5543 5540 5536 5533 5530 5527 5524 5521 5518 5515 5512 5510 5508 5506 5504 5503 5501 5499 5498 5497 5495 5494 5493 5492 5492 5492 5493 5493 5494 5495 5497 5499 5501 5504 5507
5560 5557 5553 5552 5550 5546 5542 5539 5537 5534 5531 5528 5524 5521 5518 5515 5512 5510 5507 5504 5502 5500 5498 5496 5494 5492 5490 5489 5487 5486 5485 5484 5483 5483 5483 5483 5484 5484 5485 5487 5489 5491 5493 5495
5551 5548 5545 5542 5541 5537 5534 5531 5529 5526 5523 5519 5516 5513 5510 5507 5504 5501 5499 5496 5494 5491 5489 5487 5485 5483 5481 5480 5478 5477 5476 5474 5474 5473 5473 5473 5474 5475 5475 5477 5478 5480 5482 5484
5543 5539 5536 5534 5532 5529 5526 5523 5520 5518 5514 5511 5508 5504 5501 5498 5496 5493 5490 5488 5485 5482 5480 5478 5476 5474 5472 5471 5469 5467 5466 5465 5464 5464 5464 5464 5464 5465 5466 5466 5468 5470 5471 5473
5534 5530 5527 5525 5523 5520 5518 5514 5511 5509 5506 5502 5499 5496 5493 5490 5487 5484 5482 5479 5477 5474 5471 5469 5467 5465 5463 5461 5460 5458 5457 5456 5455 5455 5454 5454 5455 5455 5455 5456 5457 5458 5461 5462